Location: Unspecified
(0.0000°N, 0.0000°E)
Time: 00:01:07
(UTC+00:00)

ISS - Pass Details

Date: 20 July 2019
Orbit: 409 x 418 km, 51.6° (Epoch: 23 July)

Event Time Altitude Azimuth Distance (km) Brightness Sun altitude
Rises 04:24:35 0° 352° (N) 2,315 0.2 -23.7°
Reaches altitude 10° 04:27:18 10° 17° (NNE) 1,459 -0.5 -23.1°
Maximum altitude 04:29:16 15° 54° (NE) 1,200 -0.5 -22.6°
Drops below altitude 10° 04:31:14 10° 91° (E) 1,464 -0.1 -22.2°
Sets 04:33:58 0° 116° (ESE) 2,329 0.6 -21.5°
